Notices

What's New in latest Release from April 7th, 2021:

- Updated Glossary, including Speed of Maximum Gust, and Total Hourly Precipitation

- Updated national and regional climate services offices contacts and prices information

- Addition of station inventory lists for 1981-2010, 1971-2000, and 1961-1990 Normals.

If you haven't already, please take our survey and provide feedback about our website: https://eccc.sondage-survey.ca/f/LanguageSelection.aspx?s=442ca660-fcf1-47c0-95a9-59707d6fd709

Hourly Data Report for November 24, 2017

VICTORIA UNIVERSITY CS
BRITISH COLUMBIA

48°27'25.200" N
123°18'16.600" W
60.10 m
1018598
71783
WYJ

Download Data

Hourly Data (November 2017)
Hourly Data Report for November 24, 2017
TIME
LST
Temp Definition
°C
Dew Point Definition
°C
Rel Hum Definition
%
Precip. Amount Definition
mm

Wind Dir Definition
10's deg

Wind Spd Definition
km/h
Visibility Definition
km
Stn Press Definition
kPa
Hmdx Definition


Wind Chill Definition


Weather Definition


00:00 8.5 6.3 86 0.0 25 9   100.62     LegendNANA
01:00 8.2 5.7 85 0.0 25 12   100.67     LegendNANA
02:00 8.3 5.7 84 0.0 26 11   100.75     LegendNANA
03:00 8.0 5.5 84 0.0 26 9   100.83     LegendNANA
04:00 8.2 4.7 78 0.0 25 9   100.80     LegendNANA
05:00 8.4 4.3 76 0.0 24 9   100.80     LegendNANA
06:00 8.1 5.5 83 0.0 21 9   100.85     LegendNANA
07:00 8.1 6.3 89 0.0 19 4   100.87     LegendNANA
08:00 8.3 7.2 93 0.0 18 3   100.90     LegendNANA
09:00 8.1 7.2 94 0.0 0 1   100.91     LegendNANA
10:00 7.9 6.3 90 0.0 13 1   100.92     LegendNANA
11:00 8.3 6.8 90 0.0 11 1   100.94     LegendNANA
12:00 8.3 6.9 90 0.0 11 2   100.91     LegendNANA
13:00 8.6 6.8 88 0.0 11 2   100.89     LegendNANA
14:00 8.8 6.9 88 0.0 11 2   100.86     LegendNANA
15:00 8.7 7.0 89 0.0 0 1   100.87     LegendNANA
16:00
17:00 8.4 7.4 93 0.0 7 2   100.84     LegendNANA
18:00 7.9 6.9 94 0.0 0 1   100.81     LegendNANA
19:00 7.6 6.8 94 0.0 20 2   100.85     LegendNANA
20:00 7.3 6.9 97 0.0 10 2   100.82     LegendNANA
21:00 6.9 6.5 97 0.0   0   100.87     LegendNANA
22:00 6.7 6.3 98 0.0 0 1   100.91     LegendNANA
23:00 6.5 6.2 98 0.0 7 1   100.91     LegendNANA

Notes on Data Quality.

Legend

  • E = Estimated
  • M = Missing
  • NA = Not Available*
  • [empty] = Indicates an unobserved value
Date modified: